Weather History for PAHN - October, 2013

Change the Weather History Date:

Monday, October 28, 2013

  Actual Average Record
Temperature  
Mean Temperature 42 °F -  
Max Temperature 50 °F 39 °F 51 °F (1981)
Min Temperature 35 °F 32 °F 8 °F (1982)
Degree Days  
Heating Degree Days 24    
Moisture  
Dew Point 35 °F    
Average Humidity 81    
Maximum Humidity 97    
Minimum Humidity 54    
Precipitation  
Precipitation 0.07 in - - ()
Sea Level Pressure  
Sea Level Pressure 30.12 in    
Wind  
Wind Speed 8 mph (NW)    
Max Wind Speed 16 mph    
Max Gust Speed 25 mph    
Visibility 10 miles    
Events Rain    
Averages and records for this station are not official NWS values.
T = Trace of Precipitation, MM = Missing Value Source: NWS Daily Summary

Daily Weather History Graph

Daily Weather History Graph

Search for Another Location

Airport or City:

Trip Planner

Search our weather history database for the weather conditions in past years. The results will help you decide how hot, cold, wet, or windy it might be!

Date:

Astronomy

Oct. 28, 2013 Rise Set
Actual Time 8:12 AM AKDT 5:18 PM AKDT
Civil Twilight 7:29 AM AKDT 6:01 PM AKDT
Nautical Twilight 6:41 AM AKDT 6:49 PM AKDT
Astronomical Twilight 5:54 AM AKDT 7:36 PM AKDT
Moon 12:51 AM AKDT (10/28) 3:16 PM AKDT (10/28)
Length of Visible Light 10h 32m
Length of Day
9h 05m
Waning Crescent, 33% of the Moon is Illuminated
Oct 28
Waning Crescent
Nov 3
New
Nov 9
First Quarter
Nov 17
Full
Nov 25
Last Quarter

Hourly Weather History & Observations

Time (AKDT) Temp. Windchill Dew Point Humidity Pressure Visibility Wind Dir Wind Speed Gust Speed Precip Events Conditions
12:54 AM 37.0 °F 31.6 °F 35.1 °F 93% 30.40 in 10.0 mi NW 6.9 mph - N/A   Overcast
1:54 AM 37.0 °F 31.6 °F 35.1 °F 93% 30.38 in 10.0 mi WNW 6.9 mph - N/A   Overcast
2:54 AM 37.9 °F 30.0 °F 34.0 °F 86% 30.37 in 10.0 mi WNW 12.7 mph - N/A   Overcast
3:54 AM 37.9 °F 30.9 °F 34.0 °F 86% 30.35 in 10.0 mi WNW 10.4 mph - N/A   Partly Cloudy
4:54 AM 36.0 °F 29.0 °F 33.1 °F 89% 30.33 in 10.0 mi WNW 9.2 mph - N/A   Scattered Clouds
5:54 AM 36.0 °F 29.6 °F 34.0 °F 93% 30.31 in 10.0 mi WNW 8.1 mph - N/A   Overcast
6:54 AM 35.1 °F 28.6 °F 33.1 °F 92% 30.29 in 10.0 mi WNW 8.1 mph - N/A   Overcast
7:54 AM 35.1 °F 27.9 °F 33.1 °F 92% 30.28 in 10.0 mi WNW 9.2 mph - N/A   Overcast
8:54 AM 36.0 °F - 35.1 °F 97% 30.25 in 10.0 mi Calm Calm - N/A   Overcast
9:54 AM 37.0 °F 33.3 °F 35.1 °F 93% 30.22 in 10.0 mi WNW 4.6 mph - N/A   Overcast
10:54 AM 37.0 °F 33.3 °F 34.0 °F 89% 30.19 in 10.0 mi West 4.6 mph - N/A   Overcast
11:54 AM 37.9 °F 34.4 °F 35.1 °F 89% 30.18 in 10.0 mi WNW 4.6 mph - N/A   Overcast
12:54 PM 41.0 °F - 36.0 °F 82% 30.14 in 10.0 mi Calm Calm - N/A   Overcast
1:54 PM 44.1 °F 40.8 °F 37.9 °F 79% 30.10 in 10.0 mi ESE 5.8 mph - N/A   Overcast
2:54 PM 45.0 °F 40.1 °F 39.0 °F 80% 30.06 in 10.0 mi SE 9.2 mph - N/A   Overcast
3:54 PM 46.0 °F 41.9 °F 37.0 °F 71% 30.00 in 10.0 mi East 8.1 mph - N/A   Overcast
4:54 PM 46.0 °F 41.0 °F 37.0 °F 71% 29.95 in 10.0 mi ESE 10.4 mph 24.2 mph N/A   Mostly Cloudy
5:54 PM 46.9 °F - 34.0 °F 61% 29.92 in 10.0 mi ESE 13.8 mph 23.0 mph N/A   Overcast
6:54 PM 46.9 °F - 35.1 °F 63% 29.88 in 10.0 mi ESE 11.5 mph - N/A   Overcast
7:54 PM 46.0 °F 40.6 °F 37.0 °F 71% 29.84 in 10.0 mi SE 11.5 mph 18.4 mph N/A   Overcast
8:54 PM 48.9 °F - 33.1 °F 54% 29.82 in 10.0 mi East 11.5 mph 21.9 mph 0.00 in Rain Light Rain
9:54 PM 48.0 °F - 35.1 °F 61% 29.84 in 10.0 mi Variable 4.6 mph - 0.00 in Rain Light Rain
10:54 PM 46.0 °F 40.2 °F 37.9 °F 73% 29.85 in 7.0 mi ENE 12.7 mph 21.9 mph 0.00 in Rain Light Rain
11:54 PM 44.1 °F 36.8 °F 39.9 °F 85% 29.82 in 10.0 mi East 16.1 mph 25.3 mph 0.07 in Rain Light Rain